Weather in Inza

Russia / Ulyanovsk Oblast     53°51′25″N   46°21′05″E
temp.,
°C
wind,
m/s
gust,
m/s
humid.,
%
clouds,
%
prec.,
mm/h
press.,
hPa
HPBL,
m
14 april, wed
wed1401:00+8se33635 0.0 103036
04:00+7se22685 0.0 102924
07:00+7se33745 0.0 102849
10:00+14se58584 0.0 1027381
13:00+17se68565 0.0 1025995
16:00+18se79500 0.0 10241359
19:00+15se48655 0.0 1023241
22:00+11se34854 0.0 102366
15 april, thu
thu1501:00+10se23903 0.0 102234
04:00+8se22902 0.0 102124
07:00+8se228968 0.0 102133
10:00+13se2364100 0.0 1020353
13:00+17se224281 0.0 1019920
16:00+19se23381 0.0 10181404
19:00+16e335310 0.0 101738
22:00+12e226680 0.0 101814
16 april, fri
fri1601:00+10ene227193 0.0 101814
04:00+9ne2276100 0.0 101818
07:00+8ne368291 0.0 1019120
10:00+14ene576199 0.0 1019514
13:00+17ene565378 0.0 10201050
16:00+16ene5655100 0.0 10201282
19:00+13ne4869100 0.0 1021362
22:00+9ne51182100 0.0 1022377
17 april, sat
sat1701:00+7ne4108619 0.0 1023312
04:00+5ne4109139 0.0 1024301
07:00+5ne511905 0.0 1024360
10:00+9ene69675 0.0 1025600
13:00+12ene78525 0.0 1024975
16:00+13ene67410 0.0 10241122
19:00+10ene59480 0.0 1025580
22:00+6ene412593 0.0 1026315
18 april, sun
sun1801:00+4ene411645 0.0 1026266
04:00+2ne38735 0.0 1027161
07:00+3ne39770 0.0 1027215
10:00+9ene58530 0.0 1026895
13:00+12ene67445 0.0 10261431
16:00+12ene67415 0.0 10261651
19:00+10e595145 0.0 1026551
22:00+6ene3106668 0.0 1027259